Starlink 32107

operational
NORAD ID: 59694 Int'l Des: 2024-086 Owner: SPXS Country: US Constellation: starlink
LEOCIRCULAR

关于 Starlink 32107

正在加载描述...

实时位置

正在加载3D地球...

即将过境

高度历史

Altitude vs Time

uPlot chart will show altitude changes over time

两行轨道根数

1 59694U 24086N 25257.50239872 -.00000607 00000-0 -12547-4 0 9998
2 59694 43.0017 335.1596 0000952 264.1166 95.9577 15.27590441 77165
Epoch: Sep 14, 2025 • Age: 18 hours

当前状态

高度 495.7 km
速度 7.62 km/s
星下点 -43.16°S, 148.7°E
发射日期 May 8, 2024
运行时间 1.3 years
类型 internet

技术详情

分类 Payload
质量 730.00 kg
干质量 700.00 kg
总质量 730.00 kg
长度 0.30 m
直径 4.10 m
跨度 29.00 m
形状 Box + pan
制造商 SPXS
平台类型 Starlink V2M
阶段状态 In Orbit
所有者/国家 SPXS/US

大型星座

Loading constellations...